#timestamp,LO_Frequency,Hit,StdDev 
1557910815.7,286047002.7,N
1557910835.5,286047000.6,N
1557910855.4,286047000.4,N
1557910875.2,286047000.2,N
1557910895.0,286046998.4,N
1557910895.9,286046998.4,N
1557910915.8,286046996.7,N
1557910935.6,286047001.2,N
1557910955.5,286047000.7,N
1557910975.3,286046998.3,N
1557910995.1,286046998.7,N
1557911015.9,286046998.1,N
1557911035.7,286047002.7,N
1557911055.5,286047001.6,N
1557911075.4,286046998.1,N
1557911095.2,286047002.4,N
1557911115.1,286047000.1,N
1557911116.0,286047000.1,N
1557911135.8,286047003.5,N
1557911155.6,286047004.3,N
1557911175.5,286047002.0,N
1557911195.3,286047000.1,N
1557911215.1,286047001.0,N
1557911235.9,286046998.4,N
1557911255.7,286046999.3,N
1557911275.6,286046998.9,N
1557911295.4,286047000.5,N
1557911315.2,286047002.4,N
1557911335.1,286047005.9,Y
1557911336.0,286047005.9,P
1557911355.8,286047004.4,N
1557911375.6,286047001.4,N
1557911395.5,286047001.5,N
1557911415.3,286047002.3,N
1557911435.2,286047001.0,N
1557911455.9,286047000.4,N
1557911475.7,286047000.2,N
1557911495.6,286046999.8,N
1557911515.4,286047004.4,N
1557911535.2,286047003.2,N
1557911555.1,286047001.4,N
1557911575.1,286047002.8,N
1557911595.9,286047000.4,N
1557911615.7,286047000.0,N
1557911635.5,286047001.7,N
1557911655.4,286047004.1,N
1557911675.2,286047004.3,N
1557911695.1,286047003.6,N
1557911696.0,286047003.6,N
1557911715.8,286047003.3,N
1557911735.6,286047005.4,Y
1557911755.5,286047003.8,P
1557911775.3,286047002.3,N
1557911795.1,286047000.0,N
1557911815.9,286047000.7,N
1557911835.7,286047000.5,N
1557911855.6,286046999.8,N
1557911875.4,286047002.2,N
1557911895.2,286047002.5,N
1557911915.1,286047001.6,N
1557911916.0,286047001.6,N
1557911935.8,286046999.9,N
1557911955.6,286046998.1,N
1557911975.5,286046999.5,N
1557911995.3,286046997.2,N
1557912015.2,286046996.9,N
1557912035.9,286046997.4,N
1557912055.7,286046995.0,N
1557912075.6,286046997.4,N
1557912095.4,286046999.2,N
1557912115.2,286046999.6,N
1557912135.1,286046999.3,N
1557912136.0,286046999.3,N
1557912155.8,286047000.8,N
1557912175.7,286047002.3,N
1557912195.5,286047001.4,N
1557912215.3,286047004.1,N
1557912235.2,286047003.5,N
1557912255.0,286047001.8,N
1557912255.9,286047001.8,N
1557912275.8,286047001.9,N
1557912295.6,286047002.2,N
1557912315.4,286047000.4,N
1557912335.3,286047002.7,N
1557912355.1,286047000.1,N
1557912375.8,286047002.6,N
1557912395.7,286046998.3,N
1557912415.5,286046999.3,N
1557912435.4,286046998.4,N
1557912455.2,286046998.2,N
1557912475.3,286046996.6,N
1557912495.1,286046996.9,N
1557912515.8,286047000.9,N
1557912535.7,286047000.6,N
1557912555.5,286047001.0,N
1557912575.4,286047000.9,N
1557912595.2,286046999.9,N
1557912615.0,286047002.3,N
1557912615.9,286047002.3,N
1557912635.8,286047002.0,N
1557912655.6,286047003.8,N
1557912675.3,286047004.0,N
1557912695.1,286047002.5,N
1557912715.8,286047001.8,N
1557912735.7,286047001.6,N
1557912755.5,286047000.7,N
1557912775.4,286047000.8,N
1557912795.2,286047000.7,N
1557912815.0,286046999.6,N
1557912815.9,286046999.6,N
1557912835.8,286046998.1,N
1557912855.6,286046999.6,N
1557912875.4,286046996.9,N
1557912895.3,286046998.5,N
1557912915.1,286047002.0,N
1557912935.9,286047002.0,N
1557912955.7,286047004.2,N
1557912975.5,286047003.1,N
1557912995.4,286047001.4,N
1557913015.2,286047002.0,N
1557913035.0,286047001.3,N
1557913035.9,286047001.3,N
1557913055.8,286047002.2,N
1557913075.6,286047000.3,N
1557913095.5,286046998.8,N
1557913115.3,286046998.4,N
1557913135.1,286046998.4,N
1557913155.9,286046999.4,N
1557913175.7,286046999.6,N
1557913195.6,286046999.4,N
1557913215.4,286046996.5,N
1557913235.2,286046996.8,N
1557913255.7,286046997.8,N
1557913275.5,286046996.9,N
1557913295.4,286046998.8,N
1557913315.2,286046997.4,N
1557913335.1,286046996.7,N
1557913336.0,286046996.7,N
1557913355.8,286046997.8,N
1557913375.6,286046996.7,N
1557913395.5,286046998.6,N
1557913415.3,286046998.7,N
1557913435.2,286046996.6,N
1557913455.9,286046999.3,N
1557913475.7,286046999.2,N
1557913495.6,286046998.5,N
1557913515.4,286046998.4,N
1557913535.2,286046999.2,N
1557913555.1,286046997.4,N
1557913556.0,286046997.4,N
1557913575.8,286046996.1,N
1557913595.7,286046995.6,Y
1557913615.5,286046997.6,P
1557913635.3,286046998.9,P
1557913655.2,286046999.0,N
1557913675.0,286046996.7,Y
1557913675.9,286046996.7,P
1557913695.8,286047000.7,N
1557913715.6,286046999.8,N
1557913735.4,286046999.9,N
1557913755.3,286046999.0,N
1557913775.1,286047000.7,N
1557913795.9,286047000.9,N
1557913815.7,286047000.9,N
1557913835.5,286047000.2,N
1557913855.4,286047001.6,N
1557913875.2,286047002.4,N
1557913895.1,286047002.8,N
1557913896.0,286047002.8,N
1557913915.8,286047002.7,N
1557913935.6,286047000.2,N
1557913955.7,286047002.5,N
1557913975.5,286047002.3,N
1557913995.3,286047002.1,N
1557914015.2,286047001.4,N
1557914035.0,286047001.3,N
1557914035.9,286047001.3,N
1557914055.7,286047003.9,N
1557914075.6,286046999.9,N
1557914095.4,286047001.2,N
1557914115.3,286046999.2,N
1557914135.1,286046997.5,N
1557914136.0,286046997.5,N
1557914155.8,286046999.4,N
1557914175.7,286046996.7,N
1557914195.5,286046996.8,N
1557914215.4,286046997.1,N
1557914235.2,286046999.6,N
1557914255.0,286046996.7,N
1557914255.9,286046996.7,N
1557914275.8,286046997.1,N
1557914295.6,286046997.5,N
1557914315.4,286046995.4,N
1557914335.9,286046994.9,N
1557914355.7,286046997.7,N
1557914375.5,286046997.3,N
1557914395.4,286046995.2,N
